• In Hungary
  • List of Countries
  • For 7 days
  • Water Temperature
  • Satellite Maps
  • Weather Map
  • News
  • Weather Widgets
  • user-avatar
    Login

    Hourly Weather Zlojec

    Today, 23 September, Sunday

    Time Temperature Precipitation Wind Pressure Humidity
    00:00 +9°C° 0 mm 3 mps 745 mmHg 83%
    01:00 +9°C° 0 mm 3 mps 745 mmHg 82%
    02:00 +9°C° 0 mm 2 mps 745 mmHg 86%
    03:00 +9°C° 0 mm 2 mps 745 mmHg 84%
    04:00 +9°C° 0 mm 2 mps 744 mmHg 83%
    05:00 +9°C° 0 mm 2 mps 744 mmHg 81%
    06:00 +10°C° 0 mm 3 mps 744 mmHg 79%
    07:00 +10°C° 0 mm 3 mps 744 mmHg 76%
    08:00 +11°C° 0 mm 4 mps 744 mmHg 72%
    09:00 +13°C° 0 mm 4 mps 744 mmHg 65%
    10:00 +14°C° 0 mm 5 mps 744 mmHg 58%
    11:00 +16°C° 0 mm 5 mps 744 mmHg 51%
    12:00 +17°C° 0 mm 5 mps 743 mmHg 49%
    13:00 +17°C° 0 mm 6 mps 743 mmHg 48%
    14:00 +17°C° 0 mm 6 mps 743 mmHg 46%
    15:00 +17°C° 0 mm 5 mps 742 mmHg 49%
    16:00 +17°C° 0 mm 4 mps 742 mmHg 53%
    17:00 +17°C° 0 mm 3 mps 741 mmHg 56%
    18:00 +16°C° 0 mm 3 mps 740 mmHg 59%
    19:00 +16°C° 0 mm 3 mps 739 mmHg 62%
    20:00 +14°C° 0 mm 3 mps 739 mmHg 65%
    21:00 +14°C° 0.1 mm 4 mps 737 mmHg 64%
    22:00 +14°C° 0.1 mm 6 mps 736 mmHg 64%
    23:00 +15°C° 0.1 mm 7 mps 735 mmHg 63%

    Tomorrow, 24 September, Monday

    Time Temperature Precipitation Wind Pressure Humidity
    00:00 +15°C° 1.6 mm 7 mps 733 mmHg 69%
    01:00 +15°C° 1.6 mm 7 mps 732 mmHg 74%
    02:00 +15°C° 1.6 mm 7 mps 731 mmHg 80%
    03:00 +15°C° 2.1 mm 8 mps 731 mmHg 81%
    04:00 +14°C° 2.1 mm 10 mps 731 mmHg 83%
    05:00 +14°C° 2.1 mm 11 mps 731 mmHg 85%
    06:00 +12°C° 0.2 mm 11 mps 732 mmHg 84%
    07:00 +9°C° 0.2 mm 10 mps 734 mmHg 83%
    08:00 +8°C° 0.2 mm 10 mps 735 mmHg 82%
    09:00 +8°C° 0.1 mm 10 mps 737 mmHg 80%
    10:00 +8°C° 0.1 mm 9 mps 738 mmHg 77%
    11:00 +8°C° 0.1 mm 9 mps 739 mmHg 75%
    12:00 +10°C° 0.3 mm 9 mps 740 mmHg 72%
    13:00 +9°C° 0.3 mm 10 mps 740 mmHg 70%
    14:00 +11°C° 0.3 mm 10 mps 741 mmHg 67%
    15:00 +9°C° 0.1 mm 10 mps 741 mmHg 66%
    16:00 +10°C° 0.1 mm 9 mps 742 mmHg 65%
    17:00 +8°C° 0.1 mm 9 mps 742 mmHg 64%
    18:00 +9°C° 0 mm 8 mps 742 mmHg 66%
    19:00 +8°C° 0 mm 7 mps 743 mmHg 68%
    20:00 +7°C° 0 mm 6 mps 743 mmHg 70%
    21:00 +6°C° 0.1 mm 7 mps 743 mmHg 72%
    22:00 +6°C° 0.1 mm 7 mps 744 mmHg 74%
    23:00 +6°C° 0.1 mm 7 mps 744 mmHg 76%

    Day after tomorrow, 25 September, Tuesday

    Time Temperature Precipitation Wind Pressure Humidity
    00:00 +6°C° 0.2 mm 7 mps 745 mmHg 78%
    01:00 +6°C° 0.2 mm 7 mps 745 mmHg 80%
    02:00 +6°C° 0.2 mm 7 mps 746 mmHg 81%
    03:00 +5°C° 0 mm 6 mps 747 mmHg 82%
    04:00 +4°C° 0 mm 6 mps 747 mmHg 82%
    05:00 +4°C° 0 mm 6 mps 748 mmHg 82%
    06:00 +4°C° 0 mm 6 mps 749 mmHg 80%
    07:00 +4°C° 0 mm 6 mps 750 mmHg 78%
    08:00 +5°C° 0 mm 6 mps 751 mmHg 76%
    09:00 +6°C° 0.1 mm 7 mps 751 mmHg 68%
    10:00 +8°C° 0.1 mm 7 mps 751 mmHg 61%
    11:00 +9°C° 0.1 mm 8 mps 752 mmHg 54%
    12:00 +9°C° 0.2 mm 8 mps 752 mmHg 53%
    13:00 +10°C° 0.2 mm 8 mps 752 mmHg 52%
    14:00 +10°C° 0.2 mm 8 mps 752 mmHg 51%
    15:00 +10°C° 0.1 mm 7 mps 752 mmHg 51%
    16:00 +9°C° 0.1 mm 6 mps 753 mmHg 52%
    17:00 +9°C° 0.1 mm 6 mps 753 mmHg 53%
    18:00 +8°C° 0 mm 5 mps 753 mmHg 56%
    19:00 +7°C° 0 mm 4 mps 754 mmHg 60%
    20:00 +6°C° 0 mm 4 mps 754 mmHg 63%
    21:00 +6°C° 0 mm 4 mps 755 mmHg 65%
    22:00 +5°C° 0 mm 4 mps 755 mmHg 67%
    23:00 +5°C° 0 mm 3 mps 756 mmHg 69%

    26 September, Wednesday

    Time Temperature Precipitation Wind Pressure Humidity
    00:00 +4°C° 0 mm 3 mps 756 mmHg 71%
    01:00 +4°C° 0 mm 3 mps 756 mmHg 73%
    02:00 +3°C° 0 mm 3 mps 757 mmHg 74%
    03:00 +3°C° 0 mm 3 mps 757 mmHg 76%
    04:00 +3°C° 0 mm 2 mps 757 mmHg 77%
    05:00 +3°C° 0 mm 2 mps 757 mmHg 79%
    06:00 +4°C° 0 mm 2 mps 757 mmHg 76%
    07:00 +4°C° 0 mm 2 mps 757 mmHg 73%
    08:00 +5°C° 0 mm 2 mps 757 mmHg 71%
    09:00 +7°C° 0 mm 3 mps 757 mmHg 63%
    10:00 +9°C° 0 mm 3 mps 757 mmHg 55%
    11:00 +11°C° 0 mm 3 mps 757 mmHg 47%
    12:00 +11°C° 0 mm 4 mps 757 mmHg 45%
    13:00 +12°C° 0 mm 4 mps 756 mmHg 43%
    14:00 +13°C° 0 mm 4 mps 756 mmHg 42%
    15:00 +12°C° 0 mm 4 mps 755 mmHg 45%
    16:00 +12°C° 0 mm 4 mps 754 mmHg 48%
    17:00 +12°C° 0 mm 3 mps 754 mmHg 51%
    18:00 +11°C° 0 mm 3 mps 754 mmHg 53%
    19:00 +8°C° 0 mm 4 mps 753 mmHg 56%
    20:00 +7°C° 0 mm 4 mps 753 mmHg 59%
    21:00 +8°C° 0 mm 4 mps 753 mmHg 57%
    22:00 +8°C° 0 mm 5 mps 752 mmHg 56%
    23:00 +8°C° 0 mm 5 mps 752 mmHg 55%

    27 September, Thursday

    Time Temperature Precipitation Wind Pressure Humidity
    00:00 +8°C° 0.1 mm 5 mps 752 mmHg 58%
    01:00 +9°C° 0.1 mm 5 mps 751 mmHg 60%
    02:00 +9°C° 0.1 mm 6 mps 751 mmHg 63%
    03:00 +9°C° 0.1 mm 6 mps 751 mmHg 64%
    04:00 +9°C° 0.1 mm 6 mps 750 mmHg 64%
    05:00 +9°C° 0.1 mm 7 mps 750 mmHg 65%
    06:00 +9°C° 0.1 mm 7 mps 750 mmHg 65%
    07:00 +9°C° 0.1 mm 7 mps 749 mmHg 66%
    08:00 +9°C° 0.1 mm 7 mps 749 mmHg 66%
    09:00 +9°C° 0 mm 7 mps 749 mmHg 65%
    10:00 +10°C° 0 mm 7 mps 749 mmHg 64%
    11:00 +11°C° 0 mm 6 mps 749 mmHg 62%
    12:00 +13°C° 0 mm 6 mps 749 mmHg 63%
    13:00 +14°C° 0 mm 6 mps 749 mmHg 63%
    14:00 +15°C° 0 mm 6 mps 749 mmHg 63%
    15:00 +15°C° 0 mm 5 mps 749 mmHg 65%
    16:00 +16°C° 0 mm 5 mps 748 mmHg 67%
    17:00 +17°C° 0 mm 4 mps 748 mmHg 69%
    18:00 +15°C° 0 mm 4 mps 748 mmHg 73%
    19:00 +14°C° 0 mm 3 mps 748 mmHg 78%
    20:00 +13°C° 0 mm 3 mps 748 mmHg 83%
    21:00 +13°C° 0 mm 3 mps 748 mmHg 83%
    22:00 +13°C° 0 mm 3 mps 748 mmHg 84%
    23:00 +13°C° 0 mm 3 mps 748 mmHg 85%

    28 September, Friday

    Time Temperature Precipitation Wind Pressure Humidity
    00:00 +13°C° 0 mm 3 mps 748 mmHg 87%
    01:00 +12°C° 0 mm 3 mps 747 mmHg 89%
    02:00 +12°C° 0 mm 3 mps 747 mmHg 90%
    03:00 +11°C° 0 mm 3 mps 747 mmHg 89%
    04:00 +11°C° 0 mm 4 mps 746 mmHg 88%
    05:00 +11°C° 0 mm 4 mps 746 mmHg 87%
    06:00 +12°C° 0 mm 4 mps 746 mmHg 82%
    07:00 +12°C° 0 mm 4 mps 746 mmHg 77%
    08:00 +13°C° 0 mm 5 mps 745 mmHg 73%
    09:00 +15°C° 0 mm 5 mps 745 mmHg 67%
    10:00 +17°C° 0 mm 5 mps 745 mmHg 62%
    11:00 +19°C° 0 mm 5 mps 745 mmHg 57%
    12:00 +20°C° 0 mm 5 mps 745 mmHg 55%
    13:00 +21°C° 0 mm 5 mps 745 mmHg 53%
    14:00 +22°C° 0 mm 4 mps 745 mmHg 51%
    15:00 +22°C° 0 mm 4 mps 745 mmHg 54%
    16:00 +21°C° 0 mm 3 mps 744 mmHg 57%
    17:00 +21°C° 0 mm 2 mps 744 mmHg 60%
    18:00 +19°C° 0 mm 2 mps 745 mmHg 67%
    19:00 +17°C° 0 mm 2 mps 745 mmHg 74%
    20:00 +15°C° 0 mm 2 mps 745 mmHg 81%
    21:00 +15°C° 0 mm 2 mps 745 mmHg 83%
    22:00 +14°C° 0 mm 2 mps 746 mmHg 86%
    23:00 +13°C° 0 mm 2 mps 746 mmHg 89%
    Show more